Location: Chillicothe
(39.7950°N, 93.5520°W)
Time: 09:57:03
(UTC-06:00)

Vanguard 3 - Pass Details

Date: 25 October 2019
Orbit: 508 x 3263 km, 33.3° (Epoch: 14 November)

Event Time Altitude Azimuth Distance (km) Brightness Sun altitude
Rises 23:58:54 0° 244° (WSW) 3,299 - -59.3°
Reaches altitude 10° 00:01:57 10° 234° (SW) 2,083 - -59.5°
Maximum altitude 00:05:51 29° 174° (S) 1,023 - -59.9°
Drops below altitude 10° 00:09:05 10° 111° (ESE) 1,718 - -60.1°
Sets 00:11:21 0° 99° (E) 2,607 - -60.3°
